Latest  Newer  Older  Last 2 hours animation  Current image  Latest image 
Rain/snow radar  Infrared sat images 
Real-time lightning map

All time is UTC (add 2 hours to UTC in wintertime, 3 hours to UTC in DST for Latvia local time)

2023/01/28 14:20 EVRA 281420Z 20010KT 9999 BKN030 M02/M05 Q1021 NOSIG
2023/01/28 14:20 EVLA 281420Z AUTO 24014KT 9999 BKN029/// 02/M03 Q1021
2023/01/28 14:20 EVVA 281420Z AUTO 22014KT 9999 OVC035 02/M00 Q1018
2023/01/28 14:20 EYKA 281420Z 26003KT 9999 OVC026 M01/M04 Q1023
2023/01/28 14:20 EYPA 281420Z 20008KT 9999 OVC031 01/M02 Q1022
2023/01/28 14:20 EYSA 281420Z 22009KT 190V250 9999 BKN019 M03/M06 Q1022 NOSIG
2023/01/28 14:20 EYVI 281420Z 21003KT 9999 BKN007 OVC029 M02/M03 Q1022 NOSIG
2023/01/28 08:50 EEKA 280850Z 19007KT 160V220 9999 SCT021 M00/M02 Q1019
2023/01/28 14:20 EEKE 281420Z AUTO 23012KT 200V260 9999NDV -RA OVC019 02/M01 Q1016
2023/01/28 14:20 EEPU 281420Z AUTO 21019KT 9999 BKN009/// OVC017/// M01/M02 Q1017
2023/01/28 14:20 EETN 281420Z 21014KT 9999 -SN BKN016 OVC022 00/M03 Q1013 TEMPO 19015G25TKT 4000 SN BKN012
2023/01/28 14:20 EETU 281420Z AUTO 20010KT 9999 FEW020/// M04/M07 Q1018
CD  STATION         ICAO  IATA  SYNOP   LAT     LONG   ELEV   M  N  V  U  A  C
   RIGA AIRPORT     EVRA               56 55N  023 58E   10   X     T          6 LV
   LIELVARDE        EVGA               56 47N  024 51E   61   X     T          7 LV
   LIEPAJA INTL     EVLA        26406  56 31N  021 06E    4   X                8 LV
   VENTPILS         EVVA               57 21N  021 33E    6   X                8 LV
   KAUNAS           EYKA               54 54N  023 55E   77   X     T          6 LT
   PALANGA INTL     EYPA               55 55N  021 03E   10   X                6 LT
   SIAULIAI INTL    EYSA               55 54N  023 24E  135   X     T          6 LT
   VILNIUS INTL     EYVI        26730  54 38N  025 17E  197   X     T          6 LT
   AMARI AIR BASE   EEEI               59 16N  024 12E   19   X     T          7 EE
   KARDLA           EEKA        26116  58 59N  022 50E    4   X                8 EE
   KURESSAARE       EEKE               58 14N  022 31E    4   X                8 EE
   PARNU            EEPU               58 25N  024 28E   14   X                8 EE
   TALLINN          EETN        26038  59 24N  024 49E   40   X     T          8 EE
   TARTU            EETU               58 19N  026 41E   67   X                8 EE

!   CD = 2 letter state (province) abbreviation
!   STATION = 16 character station long name
!   ICAO = 4-character international id
!   IATA = 3-character (FAA) id
!   SYNOP = 5-digit international synoptic number
!   LAT = Latitude (degrees minutes)
!   LON = Longitude (degree minutes)
!   ELEV = Station elevation (meters)
!   M = METAR reporting station.   Also Z=obsolete? site
!   N = NEXRAD (WSR-88D) Radar site
!   V = Aviation-specific flag (V=AIRMET/SIGMET end point, A=ARTCC T=TAF U=T+V)
!   U = Upper air (rawinsonde=X) or Wind Profiler (W) site
!   A = Auto (A=ASOS, W=AWOS, M=Meso, H=Human, G=Augmented) (H/G not yet impl.)
!   C = Office type F=WFO/R=RFC/C=NCEP Center
!   Digit that follows is a priority for plotting (0=highest)
!   Country code (2-char) is last column


cloud coverage image from sat24.com and METAR data from weather.noaa.gov